Caldwell, ID

12:44 PM MDT on July 23, 2017 (GMT -0600)
Caldwell Industrial

Weather History for KEUL - February, 2014

Change the Weather History Date:

Wednesday, February 26, 2014

  Actual Average (KBOI) Record (KBOI)
Temperature  
Mean Temperature 44 °F -  
Max Temperature 57 °F 49 °F 66 °F (1950)
Min Temperature 30 °F 29 °F 0 °F (1890)
Degree Days  
Heating Degree Days 22    
Moisture  
Dew Point 27 °F    
Average Humidity 53    
Maximum Humidity 75    
Minimum Humidity 35    
Precipitation  
Precipitation 0.00 in - - ()
Sea Level Pressure  
Sea Level Pressure 29.96 in    
Wind  
Wind Speed 7 mph (ESE)    
Max Wind Speed 13 mph    
Max Gust Speed -    
Visibility 10 miles    
Events      
Averages and records for this station are not official NWS values.
T = Trace of Precipitation, MM = Missing Value Source: NWS Daily Summary

Daily Weather History Graph

Daily Weather History Graph

Search for Another Location

Airport or City:

Trip Planner

Search our weather history database for the weather conditions in past years. The results will help you decide how hot, cold, wet, or windy it might be!

Date:

Astronomy

Feb. 26, 2014 Rise Set
Actual Time 7:27 AM MST 6:31 PM MST
Civil Twilight 6:59 AM MST 7:00 PM MST
Nautical Twilight 6:25 AM MST 7:33 PM MST
Astronomical Twilight 5:52 AM MST 8:06 PM MST
Moon 5:21 AM MST (2/26) 3:48 PM MST (2/26)
Length of Visible Light 12h 01m
Length of Day
11h 03m
Waning Crescent, 9% of the Moon is Illuminated
Feb 26
Waning Crescent
Mar 1
New
Mar 8
First Quarter
Mar 16
Full
Mar 23
Last Quarter

Hourly Weather History & Observations

Time (MST) Temp. Windchill Dew Point Humidity Pressure Visibility Wind Dir Wind Speed Gust Speed Precip Events Conditions
12:15 AM 37.4 °F 33.8 °F 28.4 °F 70% 30.08 in 10.0 mi SE 4.6 mph - N/A   Clear
12:35 AM 37.4 °F 30.8 °F 28.4 °F 70% 30.08 in 10.0 mi SSE 9.2 mph - N/A   Clear
12:55 AM 39.2 °F 34.2 °F 30.2 °F 70% 30.07 in 10.0 mi SSW 6.9 mph - N/A   Clear
1:15 AM 39.2 °F 35.9 °F 30.2 °F 70% 30.08 in 10.0 mi SSW 4.6 mph - N/A   Clear
1:35 AM 39.2 °F 37.0 °F 30.2 °F 70% 30.07 in 10.0 mi South 3.5 mph - N/A   Clear
1:55 AM 37.4 °F 34.9 °F 28.4 °F 70% 30.08 in 10.0 mi East 3.5 mph - N/A   Clear
2:15 AM 35.6 °F - 28.4 °F 75% 30.07 in 10.0 mi Calm Calm - N/A   Clear
2:35 AM 35.6 °F - 26.6 °F 70% 30.07 in 10.0 mi Calm Calm - N/A   Clear
2:55 AM 33.8 °F 30.8 °F 26.6 °F 75% 30.07 in 10.0 mi ESE 3.5 mph - N/A   Clear
3:15 AM 37.4 °F 32.1 °F 23.0 °F 56% 30.06 in 10.0 mi ESE 6.9 mph - N/A   Partly Cloudy
3:35 AM 37.4 °F 32.1 °F 21.2 °F 52% 30.06 in 10.0 mi SE 6.9 mph - N/A   Clear
3:55 AM 37.4 °F 31.4 °F 21.2 °F 52% 30.06 in 10.0 mi SE 8.1 mph - N/A   Clear
4:15 AM 35.6 °F 29.2 °F 21.2 °F 56% 30.05 in 10.0 mi ESE 8.1 mph - N/A   Clear
4:35 AM 35.6 °F 29.2 °F 21.2 °F 56% 30.05 in 10.0 mi ESE 8.1 mph - N/A   Clear
4:55 AM 35.6 °F 29.2 °F 21.2 °F 56% 30.05 in 10.0 mi ESE 8.1 mph - N/A   Clear
5:15 AM 35.6 °F 28.6 °F 19.4 °F 52% 30.05 in 10.0 mi SE 9.2 mph - N/A   Clear
5:35 AM 33.8 °F 27.7 °F 19.4 °F 56% 30.06 in 10.0 mi SE 6.9 mph - N/A   Clear
5:55 AM 33.8 °F 28.6 °F 19.4 °F 56% 30.06 in 10.0 mi SE 5.8 mph - N/A   Clear
6:15 AM 33.8 °F 27.0 °F 17.6 °F 52% 30.06 in 10.0 mi SE 8.1 mph - N/A   Clear
6:35 AM 33.8 °F 27.0 °F 19.4 °F 56% 30.06 in 10.0 mi SE 8.1 mph - N/A   Clear
6:55 AM 32.0 °F 26.4 °F 19.4 °F 60% 30.06 in 10.0 mi SE 5.8 mph - N/A   Clear
7:15 AM 30.2 °F 23.4 °F 19.4 °F 64% 30.06 in 10.0 mi ESE 6.9 mph - N/A   Clear
7:35 AM 32.0 °F 25.6 °F 19.4 °F 60% 30.06 in 10.0 mi SE 6.9 mph - N/A   Clear
7:55 AM 33.8 °F 26.4 °F 19.4 °F 56% 30.06 in 10.0 mi SSE 9.2 mph - N/A   Clear
8:15 AM 33.8 °F 27.7 °F 19.4 °F 56% 30.06 in 10.0 mi SSE 6.9 mph - N/A   Clear
8:35 AM 37.4 °F 30.3 °F 19.4 °F 48% 30.07 in 10.0 mi SSE 10.4 mph - N/A   Clear
8:55 AM 39.2 °F 32.5 °F 19.4 °F 45% 30.07 in 10.0 mi SE 10.4 mph - N/A   Clear
9:15 AM 41.0 °F 33.9 °F 19.4 °F 42% 30.07 in 10.0 mi SE 12.7 mph - N/A   Clear
9:35 AM 42.8 °F 36.2 °F 19.4 °F 39% 30.06 in 10.0 mi SE 12.7 mph - N/A   Clear
9:55 AM 42.8 °F 36.2 °F 19.4 °F 39% 30.06 in 10.0 mi SSE 12.7 mph - N/A   Clear
10:15 AM 44.6 °F 38.4 °F 21.2 °F 39% 30.06 in 10.0 mi SSE 12.7 mph - N/A   Clear
10:35 AM 44.6 °F 38.4 °F 21.2 °F 39% 30.05 in 10.0 mi SE 12.7 mph - N/A   Clear
10:55 AM 46.4 °F 41.9 °F 23.0 °F 40% 30.05 in 10.0 mi SE 9.2 mph - N/A   Clear
11:15 AM 46.4 °F 41.9 °F 23.0 °F 40% 30.04 in 10.0 mi ESE 9.2 mph - N/A   Clear
11:35 AM 48.2 °F - 24.8 °F 40% 30.04 in 10.0 mi SE 10.4 mph - N/A   Clear
11:55 AM 48.2 °F - 24.8 °F 40% 30.03 in 10.0 mi SE 6.9 mph - N/A   Clear
12:15 PM 50.0 °F - 26.6 °F 40% 30.02 in 10.0 mi ESE 10.4 mph - N/A   Clear
12:35 PM 51.8 °F - 26.6 °F 38% 30.01 in 10.0 mi SE 8.1 mph - N/A   Clear
12:55 PM 53.6 °F - 26.6 °F 35% 30.00 in 10.0 mi ESE 8.1 mph - N/A   Clear
1:15 PM 53.6 °F - 28.4 °F 38% 29.98 in 10.0 mi East 8.1 mph - N/A   Clear
1:35 PM 53.6 °F - 28.4 °F 38% 29.97 in 10.0 mi ENE 10.4 mph - N/A   Clear
1:55 PM 53.6 °F - 30.2 °F 41% 29.96 in 10.0 mi East 9.2 mph - N/A   Clear
2:15 PM 55.4 °F - 30.2 °F 38% 29.94 in 10.0 mi East 10.4 mph - N/A   Clear
2:35 PM 55.4 °F - 33.8 °F 44% 29.93 in 10.0 mi ENE 11.5 mph - N/A   Clear
2:55 PM 55.4 °F - 33.8 °F 44% 29.92 in 10.0 mi NE 8.1 mph - N/A   Clear
3:15 PM 55.4 °F - 32.0 °F 41% 29.91 in 10.0 mi NE 9.2 mph - N/A   Clear
3:35 PM 55.4 °F - 32.0 °F 41% 29.90 in 10.0 mi NE 8.1 mph - N/A   Clear
3:55 PM 57.2 °F - 33.8 °F 41% 29.90 in 10.0 mi NE 9.2 mph - N/A   Clear
4:15 PM 57.2 °F - 33.8 °F 41% 29.88 in 10.0 mi NE 11.5 mph - N/A   Clear
4:35 PM 57.2 °F - 33.8 °F 41% 29.87 in 10.0 mi NE 9.2 mph - N/A   Clear
4:55 PM 57.2 °F - 33.8 °F 41% 29.86 in 10.0 mi NE 9.2 mph - N/A   Clear
5:15 PM 57.2 °F - 33.8 °F 41% 29.86 in 10.0 mi NNE 8.1 mph - N/A   Clear
5:35 PM 55.4 °F - 33.8 °F 44% 29.86 in 10.0 mi NNE 4.6 mph - N/A   Clear
5:55 PM 55.4 °F - 33.8 °F 44% 29.85 in 10.0 mi NNE 6.9 mph - N/A   Clear
6:15 PM 53.6 °F - 33.8 °F 47% 29.84 in 10.0 mi North 6.9 mph - N/A   Clear
6:35 PM 50.0 °F - 33.8 °F 54% 29.83 in 10.0 mi NNE 6.9 mph - N/A   Clear
6:55 PM 48.2 °F - 33.8 °F 58% 29.83 in 10.0 mi NNE 4.6 mph - N/A   Clear
7:15 PM 48.2 °F - 32.0 °F 54% 29.83 in 10.0 mi NNW 3.5 mph - N/A   Clear
7:35 PM 48.2 °F - 32.0 °F 54% 29.82 in 10.0 mi North 3.5 mph - N/A   Clear
7:55 PM 46.4 °F - 30.2 °F 53% 29.82 in 10.0 mi Calm Calm - N/A   Clear
8:15 PM 44.6 °F 43.1 °F 30.2 °F 57% 29.81 in 10.0 mi NNE 3.5 mph - N/A   Clear
8:35 PM 42.8 °F 38.0 °F 30.2 °F 61% 29.80 in 10.0 mi ENE 8.1 mph - N/A   Clear
8:55 PM 42.8 °F 40.1 °F 30.2 °F 61% 29.80 in 10.0 mi ENE 4.6 mph - N/A   Clear
9:15 PM 42.8 °F 39.3 °F 30.2 °F 61% 29.79 in 10.0 mi ESE 5.8 mph - N/A   Clear
9:35 PM 42.8 °F - 32.0 °F 66% 29.79 in 10.0 mi Calm Calm - N/A   Partly Cloudy
9:55 PM 42.8 °F - 32.0 °F 66% 29.79 in 10.0 mi Calm Calm - N/A   Partly Cloudy
10:15 PM 42.8 °F - 32.0 °F 66% 29.79 in 10.0 mi Calm Calm - N/A   Clear
10:35 PM 41.0 °F - 30.2 °F 65% 29.78 in 10.0 mi Calm Calm - N/A   Clear
10:55 PM 41.0 °F - 30.2 °F 65% 29.78 in 10.0 mi Calm Calm - N/A   Clear
11:15 PM 41.0 °F - 30.2 °F 65% 29.77 in 10.0 mi Calm Calm - N/A   Clear
11:35 PM 39.2 °F - 28.4 °F 65% 29.77 in 10.0 mi Calm Calm - N/A   Clear
11:55 PM 39.2 °F 37.0 °F 30.2 °F 70% 29.76 in 10.0 mi WSW 3.5 mph - N/A   Clear